Погода в Сланцах

Россия / Санкт-Петербург и Ленинградская область     59°07′04″N   28°05′17″E
темп.,
°C
ветер,
м/с
пор.,
м/с
влажн.,
%
обл.,
%
осадки,
мм/ч
давл.,
гПа
погр.,
м
3 марта, ср
ср300:000зсз412906 0.0 1021486
03:00−1зсз310913 0.0 1022382
06:00−1з411920 0.0 1020460
09:000з412879 0.0 1019651
12:00+3з5106956 0.0 10171006
15:00+4з5116864 0.0 10141320
18:00+3з5138297 0.0 1010755
21:00+2з5129098 0.0 1008777
4 марта, чт
чт400:00+1зсз41093100 0.1 1006634
03:00−2сз2585100 0.7 1006283
06:00−2ссз2782100 0.0 1005301
09:00−2ссз378781 0.0 1005509
12:00−1ссз477480 0.0 1005913
15:00−3ссз587090 0.1 10061060
18:00−3ссз4874100 0.1 10061098
21:00−4с387099 0.1 10071117
5 марта, пт
пт500:00−4ссз26732 0.0 1008660
03:00−5ссз26773 0.0 1009617
06:00−6ссз377565 0.0 1010845
09:00−6ссз377556 0.0 1011865
12:00−5ссз466293 0.1 10131168
15:00−4ссз466596 0.1 10141076
18:00−5ссз3669100 0.0 1015904
21:00−6ссз278198 0.1 1017751
6 марта, сб
сб600:00−6сз128283 0.0 101886
03:00−7з238457 0.0 101994
06:00−7зюз36820 0.0 1018191
09:00−6зюз410750 0.0 1016463
12:00−3юз6126364 0.0 10131009
15:00−3юз9178982 0.6 10081306
18:00−2зюз91790100 1.5 10021269
21:00−1зюз81591100 2.4 9981044
7 марта, вс
вс700:00−1зюз81695100 1.1 9931144
03:000зюз71497100 3.3 9891035
06:00−6з71655100 1.6 9891910
09:00−8з8166485 1.6 9901723
12:00−5зсз91679100 0.6 9911519
15:00−5сз81470100 0.8 9931342
18:00−6сз61288100 0.3 9961192
21:00−9с71387100 0.9 10001230